Princeton, MN

7:12 PM CDT on May 24, 2017 (GMT -0500)
Princeton Municipal

Weather History for KPNM - April, 2013

Change the Weather History Date:

Sunday, April 21, 2013

  Actual Average Record
Temperature  
Mean Temperature 36 °F -  
Max Temperature 42 °F 58 °F 138 °F (1997)
Min Temperature 30 °F 33 °F 24 °F (2011)
Degree Days  
Heating Degree Days 29    
Moisture  
Dew Point 31 °F    
Average Humidity 80    
Maximum Humidity 100    
Minimum Humidity 48    
Precipitation  
Precipitation 0.17 in - - ()
Sea Level Pressure  
Sea Level Pressure 30.14 in    
Wind  
Wind Speed 8 mph (SE)    
Max Wind Speed 22 mph    
Max Gust Speed 30 mph    
Visibility 8 miles    
Events Fog , Rain , Snow    
Averages and records for this station are not official NWS values.
T = Trace of Precipitation, MM = Missing Value Source: NWS Daily Summary

Daily Weather History Graph

Daily Weather History Graph

Search for Another Location

Airport or City:

Trip Planner

Search our weather history database for the weather conditions in past years. The results will help you decide how hot, cold, wet, or windy it might be!

Date:

Astronomy

Apr. 21, 2013 Rise Set
Actual Time 6:18 AM CDT 8:08 PM CDT
Civil Twilight 5:46 AM CDT 8:40 PM CDT
Nautical Twilight 5:07 AM CDT 9:19 PM CDT
Astronomical Twilight 4:25 AM CDT 10:02 PM CDT
Moon 3:43 PM CDT (4/21) 3:53 AM CDT (4/21)
Length of Visible Light 14h 54m
Length of Day
13h 50m
Waxing Gibbous, 80% of the Moon is Illuminated
Apr 21
Waxing Gibbous
Apr 25
Full
May 2
Last Quarter
May 9
New
May 17
First Quarter

Hourly Weather History & Observations

Time (CDT) Temp. Windchill Dew Point Humidity Pressure Visibility Wind Dir Wind Speed Gust Speed Precip Events Conditions
12:11 AM 30.2 °F 24.3 °F 15.8 °F 55% 30.29 in 10.0 mi ESE 5.8 mph - N/A   Mostly Cloudy
12:31 AM 30.2 °F 26.7 °F 15.8 °F 55% 30.29 in 10.0 mi ESE 3.5 mph - N/A   Overcast
12:52 AM 30.2 °F 24.3 °F 15.8 °F 55% 30.29 in 10.0 mi ESE 5.8 mph - N/A   Overcast
1:11 AM 30.2 °F 24.3 °F 15.8 °F 55% 30.29 in 10.0 mi ESE 5.8 mph - N/A   Overcast
1:31 AM 30.2 °F 25.4 °F 15.8 °F 55% 30.29 in 10.0 mi ESE 4.6 mph - N/A   Overcast
1:52 AM 32.0 °F 27.5 °F 14.0 °F 48% 30.29 in 10.0 mi SE 4.6 mph - N/A   Overcast
2:11 AM 30.2 °F 25.4 °F 15.8 °F 55% 30.29 in 10.0 mi SE 4.6 mph - N/A   Overcast
2:31 AM 30.2 °F 25.4 °F 15.8 °F 55% 30.29 in 10.0 mi SE 4.6 mph - N/A   Overcast
2:52 AM 30.2 °F 23.4 °F 19.4 °F 64% 30.28 in 10.0 mi SE 6.9 mph - N/A   Overcast
3:11 AM 30.2 °F 24.3 °F 21.2 °F 69% 30.28 in 10.0 mi SE 5.8 mph - N/A   Overcast
3:31 AM 30.2 °F 22.6 °F 23.0 °F 75% 30.27 in 10.0 mi SE 8.1 mph - N/A   Overcast
3:50 AM 30.2 °F 22.6 °F 24.8 °F 80% 30.26 in 7.0 mi ESE 8.1 mph - N/A Snow Light Snow
4:11 AM 30.2 °F 23.4 °F 24.8 °F 80% 30.26 in 10.0 mi ESE 6.9 mph - N/A   Overcast
4:31 AM 30.2 °F 24.3 °F 26.6 °F 86% 30.26 in 10.0 mi ESE 5.8 mph - N/A   Overcast
4:51 AM 30.2 °F 23.4 °F 26.6 °F 86% 30.25 in 7.0 mi ESE 6.9 mph - N/A Snow Light Snow
5:11 AM 30.2 °F 23.4 °F 26.6 °F 86% 30.25 in 10.0 mi East 6.9 mph - N/A Snow Light Snow
5:31 AM 30.2 °F 22.6 °F 26.6 °F 86% 30.24 in 7.0 mi ESE 8.1 mph - N/A Snow Light Snow
5:51 AM 30.2 °F 22.6 °F 26.6 °F 86% 30.24 in 5.0 mi ESE 8.1 mph - N/A Snow Light Snow
6:11 AM 30.2 °F 22.6 °F 26.6 °F 86% 30.23 in 7.0 mi ESE 8.1 mph - N/A Snow Light Snow
6:31 AM 30.2 °F 22.6 °F 28.4 °F 93% 30.23 in 7.0 mi ESE 8.1 mph 16.1 mph N/A Snow Light Snow
6:51 AM 30.2 °F 20.8 °F 28.4 °F 93% 30.23 in 10.0 mi ESE 11.5 mph - N/A   Overcast
7:11 AM 32.0 °F 23.6 °F 28.4 °F 87% 30.23 in 10.0 mi ESE 10.4 mph - N/A   Mostly Cloudy
7:31 AM 33.8 °F 24.8 °F 28.4 °F 81% 30.22 in 10.0 mi ESE 12.7 mph 17.3 mph N/A Snow Light Snow
7:51 AM 33.8 °F 24.8 °F 30.2 °F 87% 30.22 in 10.0 mi ESE 12.7 mph 20.7 mph N/A   Overcast
8:11 AM 33.8 °F 24.8 °F 30.2 °F 87% 30.21 in 10.0 mi ESE 12.7 mph 18.4 mph N/A Snow Light Snow
8:31 AM 33.8 °F 25.3 °F 30.2 °F 87% 30.21 in 10.0 mi ESE 11.5 mph 20.7 mph N/A   Overcast
8:51 AM 35.6 °F 27.5 °F 30.2 °F 81% 30.20 in 10.0 mi ESE 11.5 mph 18.4 mph N/A   Overcast
9:11 AM 35.6 °F 26.6 °F 30.2 °F 81% 30.19 in 5.0 mi SE 13.8 mph 23.0 mph N/A Snow Light Snow
9:32 AM 35.6 °F 26.2 °F 30.2 °F 81% 30.19 in 7.0 mi SE 15.0 mph 20.7 mph N/A Rain Light Rain
9:51 AM 35.6 °F 28.0 °F 30.2 °F 81% 30.18 in 7.0 mi ESE 10.4 mph - 0.01 in Rain Light Rain
10:11 AM 35.6 °F 27.1 °F 30.2 °F 81% 30.18 in 10.0 mi SE 12.7 mph 19.6 mph N/A   Overcast
10:32 AM 35.6 °F 26.6 °F 30.2 °F 81% 30.17 in 10.0 mi ESE 13.8 mph 21.9 mph N/A   Overcast
10:51 AM 37.4 °F 28.9 °F 32.0 °F 81% 30.16 in 10.0 mi SE 13.8 mph 19.6 mph N/A   Overcast
11:11 AM 37.4 °F 27.8 °F 32.0 °F 81% 30.15 in 10.0 mi SE 17.3 mph 24.2 mph N/A   Overcast
11:32 AM 37.4 °F 27.2 °F 32.0 °F 81% 30.14 in 10.0 mi SE 19.6 mph 25.3 mph N/A   Overcast
11:51 AM 39.2 °F 30.5 °F 32.0 °F 75% 30.13 in 10.0 mi SE 16.1 mph 27.6 mph N/A   Overcast
12:11 PM 39.2 °F 31.2 °F 32.0 °F 75% 30.12 in 10.0 mi SE 13.8 mph 23.0 mph N/A   Overcast
12:32 PM 39.2 °F 29.0 °F 32.0 °F 75% 30.11 in 10.0 mi SE 21.9 mph 29.9 mph N/A   Overcast
12:51 PM 41.0 °F 33.1 °F 32.0 °F 70% 30.10 in 10.0 mi SE 15.0 mph - N/A   Overcast
1:11 PM 42.8 °F 34.5 °F 32.0 °F 66% 30.09 in 10.0 mi SE 18.4 mph 24.2 mph N/A   Overcast
1:32 PM 41.0 °F 32.8 °F 32.0 °F 70% 30.08 in 10.0 mi SE 16.1 mph 26.5 mph N/A   Overcast
1:51 PM 41.0 °F 34.3 °F 33.8 °F 76% 30.07 in 10.0 mi SE 11.5 mph 23.0 mph N/A   Overcast
2:11 PM 41.0 °F 33.5 °F 33.8 °F 76% 30.06 in 10.0 mi SE 13.8 mph - N/A   Overcast
2:32 PM 42.8 °F 36.2 °F 33.8 °F 70% 30.05 in 10.0 mi SE 12.7 mph - N/A   Overcast
2:51 PM 42.8 °F 37.0 °F 33.8 °F 70% 30.05 in 10.0 mi SE 10.4 mph - N/A   Overcast
3:11 PM 42.8 °F 36.2 °F 33.8 °F 70% 30.04 in 10.0 mi SE 12.7 mph 20.7 mph N/A   Overcast
3:31 PM 42.8 °F 35.1 °F 35.6 °F 76% 30.04 in 10.0 mi SE 16.1 mph 21.9 mph N/A   Overcast
3:51 PM 42.8 °F 35.8 °F 35.6 °F 76% 30.03 in 10.0 mi SE 13.8 mph 18.4 mph N/A   Overcast
4:11 PM 42.8 °F 37.0 °F 35.6 °F 76% 30.02 in 10.0 mi SE 10.4 mph - N/A Rain Rain
4:31 PM 42.8 °F 38.6 °F 37.4 °F 81% 30.02 in 7.0 mi SE 6.9 mph - N/A Rain Rain
4:51 PM 41.0 °F 39.0 °F 37.4 °F 87% 30.01 in 7.0 mi SE 3.5 mph - 0.03 in Rain Rain
5:11 PM 41.0 °F 39.0 °F 37.4 °F 87% 30.00 in 5.0 mi East 3.5 mph - 0.02 in Rain Rain
5:31 PM 41.0 °F 37.1 °F 37.4 °F 87% 30.00 in 5.0 mi ESE 5.8 mph - 0.04 in Rain Rain
5:51 PM 41.0 °F 38.0 °F 37.4 °F 87% 30.00 in 5.0 mi ESE 4.6 mph - 0.08 in Rain Rain
6:11 PM 39.2 °F - 37.4 °F 93% 30.01 in 4.0 mi Calm Calm - 0.02 in Rain Rain
6:31 PM 39.2 °F 35.9 °F 37.4 °F 93% 30.00 in 1.5 mi East 4.6 mph - 0.05 in Rain Light Rain
6:51 PM 41.0 °F - 39.2 °F 93% 30.00 in 1.5 mi Calm Calm - 0.05 in Rain Rain
7:11 PM 39.2 °F - 39.2 °F 100% 30.01 in 0.2 mi Calm Calm - N/A Fog Fog
7:31 PM 39.2 °F - 39.2 °F 100% 30.01 in 0.2 mi Calm Calm - N/A Fog Fog
7:51 PM 41.0 °F 39.0 °F 39.2 °F 93% 30.02 in 0.5 mi SW 3.5 mph - N/A Fog Fog
8:11 PM 41.0 °F 38.0 °F 39.2 °F 93% 30.03 in 5.0 mi SW 4.6 mph - N/A   Overcast
8:31 PM 41.0 °F 36.4 °F 39.2 °F 93% 30.04 in 5.0 mi WSW 6.9 mph - N/A   Overcast
8:51 PM 41.0 °F 35.8 °F 39.2 °F 93% 30.05 in 7.0 mi West 8.1 mph - N/A   Overcast
9:11 PM 39.2 °F 33.6 °F 37.4 °F 93% 30.06 in 7.0 mi West 8.1 mph - N/A   Overcast
9:31 PM 39.2 °F 33.0 °F 37.4 °F 93% 30.08 in 10.0 mi West 9.2 mph - N/A   Overcast
9:51 PM 39.2 °F 34.2 °F 35.6 °F 87% 30.09 in 7.0 mi West 6.9 mph - N/A   Overcast
10:12 PM 37.4 °F 32.8 °F 35.6 °F 93% 30.10 in 7.0 mi West 5.8 mph - N/A   Overcast
10:31 PM 37.4 °F 31.4 °F 35.6 °F 93% 30.10 in 7.0 mi West 8.1 mph - N/A   Overcast
10:51 PM 37.4 °F 31.4 °F 35.6 °F 93% 30.11 in 5.0 mi West 8.1 mph - N/A   Overcast
11:12 PM 37.4 °F 30.8 °F 35.6 °F 93% 30.11 in 5.0 mi West 9.2 mph - N/A   Overcast
11:31 PM 35.6 °F 29.2 °F 33.8 °F 93% 30.12 in 7.0 mi West 8.1 mph - N/A   Overcast
11:51 PM 35.6 °F 28.6 °F 33.8 °F 93% 30.12 in 10.0 mi WNW 9.2 mph - N/A   Overcast